Regional Weather Roundup
Issued by NWS

Home | Current Version | Previous Version | Text Only | Print | Product List | Glossary Off
Versions: 1 2 3 4 5 6 7 8 9 10 11 12 13 14 15 16 17 18 19 20 21 22 23 24 25 26 27 28 29 30 31 32 33 34 35 36 37 38 39 40 41 42 43 44 45 46 47 48 49 50

000
ASUS44 KMEG 050410
RWRTN
TENNESSEE HOURLY STATE WEATHER ROUNDUP
NATIONAL WEATHER SERVICE MEMPHIS TN
1000 PM CST SUN DEC 04 2016

TNZ002-004-019-021-049-052-054-088>092-050500-
WEST TENNESSEE

CITY           SKY/WX    TMP DP  RH WIND       PRES   REMARKS
MEMPHIS INTL   CLOUDY    45  41  86 N6        30.06S
NWS MEMPHIS      N/A     44 N/A N/A MISG        N/A
JACKSON        CLOUDY    44  41  89 N8        30.06R
DYERSBURG      CLOUDY   N/A N/A N/A N3        30.06R
UNION CITY     CLOUDY    43  39  87 CALM      30.06R
PARIS          CLOUDY    39  36  87 CALM      30.05R
HUNTINGDON     CLOUDY    43  41  93 CALM      30.05R
LEXINGTON      CLOUDY    45  43  93 NW5       30.04S
$$

TNZ008-025-027-028-033-062-065-066-050500-
NORTH MIDDLE TENNESSEE

CITY           SKY/WX    TMP DP  RH WIND       PRES   REMARKS
NASHVILLE      CLOUDY    48  44  86 W5        30.04R
PORTLAND       CLOUDY    45  43  93 W8        30.03R
CLARKSVILLE    CLOUDY    45  41  86 NW5       30.04R
SMYRNA         CLOUDY    48  46  93 CALM      30.05R
CROSSVILLE     CLOUDY    45  44  97 SW6       30.01R FOG
$$

TNZ061-075-076-078-094-096-097-050500-
SOUTH MIDDLE TENNESSEE

CITY           SKY/WX    TMP DP  RH WIND       PRES   REMARKS
FAYETTEVILLE   CLOUDY    48  48 100 CALM      30.03R FOG
TULLAHOMA      CLOUDY    46  46 100 CALM      30.04R
WINCHESTER     CLOUDY    46  45  93 CALM      30.03R
MCMINNVILLE    CLOUDY    46  46 100 CALM      30.03R
COLUMBIA       CLOUDY   N/A N/A N/A CALM      30.02R
SHELBYVILLE    CLOUDY    48  48 100 CALM      30.04R
$$

TNZ017-018-042-046-047-050500-
NORTHEAST TENNESSEE

CITY           SKY/WX    TMP DP  RH WIND       PRES   REMARKS
TRI CITIES     DRIZZLE   46  44  93 NW5       30.01R FOG
ELIZABETHTON   DRIZZLE   46  46 100 CALM      29.99R
$$

TNZ012-013-036-069-073-074-050500-
CENTRAL EAST TENNESSEE

CITY           SKY/WX    TMP DP  RH WIND       PRES   REMARKS
KNOXVILLE      LGT RAIN  46  44  93 SW3       30.00F FOG
OAK RIDGE      CLOUDY    47  44  90 W6        30.02S
DOWNTOWN KNOXV CLOUDY    46  46 100 CALM      30.01F FOG
GATLINBURG     CLOUDY    43  43 100 CALM      30.02R
MORRISTOWN     CLOUDY    45  45 100 SW5       30.01R FOG
JACKSBORO      CLOUDY    46  46 100 CALM      30.03R
$$

TNZ083-085-099-050500-
SOUTHEAST TENNESSEE

CITY           SKY/WX    TMP DP  RH WIND       PRES   REMARKS
CHATTANOOGA    DRZL/FOG  46  44  93 SW5       30.06R VSB 3/4
$$

SKY/WX REPORTED AS FAIR MEANS FEW OR NO CLOUDS BELOW
12 THOUSAND FEET.





USA.gov is the U.S. government's official web portal to all federal, state and local government web resources and services.